E2883 Weather Reports


time (UTC)temp
C
wind
direction
speed
KPH
gust
KPH
rain 1hr
cm
rain 24hr
cm
rain mn
cm
humidity
%
barometer
mb
20211017161803 18 78 6.4 12.9 0.00 0.00 0.00 41 1023.5
20211017161302 18 65 4.8 12.9 0.00 0.00 0.00 43 1023.4
20211017160801 18 61 4.8 9.7 0.00 0.00 0.00 45 1023.4
20211017160301 18 60 3.2 9.7 0.00 0.00 0.00 44 1023.4
20211017155802 18 59 3.2 8.0 0.00 0.00 0.00 45 1023.4
20211017155301 17 59 4.8 11.3 0.00 0.00 0.00 46 1023.3
20211017154805 18 58 3.2 11.3 0.00 0.00 0.00 49 1023.3
20211017154304 17 58 3.2 9.7 0.00 0.00 0.00 47 1023.4
20211017153804 17 54 3.2 8.0 0.00 0.00 0.00 49 1023.4
20211017153305 17 54 4.8 9.7 0.00 0.00 0.00 49 1023.4
20211017152802 17 53 4.8 9.7 0.00 0.00 0.00 49 1023.3
20211017152305 17 51 3.2 8.0 0.00 0.00 0.00 48 1023.3
20211017151756 17 49 3.2 8.0 0.00 0.00 0.00 49 1023.4
20211017151249 16 46 4.8 8.0 0.00 0.00 0.00 51 1023.4
20211017150746 16 46 3.2 8.0 0.00 0.00 0.00 51 1023.3
20211017150243 16 46 1.6 6.4 0.00 0.00 0.00 52 1023.3
20211017145734 16 46 1.6 4.8 0.00 0.00 0.00 54 1023.3
20211017145231 16 46 1.6 3.2 0.00 0.00 0.00 57 1023.2
20211017144733 15 46 0.0 3.2 0.00 0.00 0.00 61 1023.1
20211017144233 14 46 0.0 3.2 0.00 0.00 0.00 71 1023.0
20211017143738 13 46 1.6 3.2 0.00 0.00 0.00 72 1022.8
20211017143232 13 46 0.0 3.2 0.00 0.00 0.00 75 1022.6
20211017142725 12 46 1.6 3.2 0.00 0.00 0.00 76 1022.6
20211017142224 12 46 1.6 3.2 0.00 0.00 0.00 76 1022.5
20211017141713 11 46 0.0 1.6 0.00 0.00 0.00 77 1022.5
20211017141206 11 46 0.0 1.6 0.00 0.00 0.00 79 1022.4
20211017140710 10 46 0.0 1.6 0.00 0.00 0.00 81 1022.2
20211017140205 10 46 1.6 1.6 0.00 0.00 0.00 82 1022.1
20211017135701 10 46 0.0 1.6 0.00 0.00 0.00 82 1022.1
20211017135205 9 46 0.0 1.6 0.00 0.00 0.00 83 1021.8
20211017134704 8 46 0.0 3.2 0.00 0.00 0.00 85 1021.7
20211017134201 8 46 1.6 3.2 0.00 0.00 0.00 85 1021.7
20211017133702 8 46 1.6 3.2 0.00 0.00 0.00 86 1021.7
20211017133205 8 46 1.6 3.2 0.00 0.00 0.00 87 1021.7
20211017132705 8 46 0.0 1.6 0.00 0.00 0.00 88 1021.6
20211017132206 7 46 0.0 0.0 0.00 0.00 0.00 88 1021.5
20211017131705 7 46 0.0 0.0 0.00 0.00 0.00 88 1021.3
20211017131206 7 46 0.0 0.0 0.00 0.00 0.00 87 1021.4
20211017130702 7 46 0.0 0.0 0.00 0.00 0.00 87 1021.3
20211017130204 7 46 0.0 0.0 0.00 0.00 0.00 87 1021.2
20211017125702 7 46 0.0 0.0 0.00 0.00 0.00 87 1021.1
20211017125208 6 46 0.0 0.0 0.00 0.00 0.00 86 1021.2
20211017124709 7 46 0.0 0.0 0.00 0.00 0.00 86 1021.1
20211017124204 7 46 0.0 0.0 0.00 0.00 0.00 86 1021.2
20211017123702 7 46 0.0 0.0 0.00 0.00 0.00 86 1021.3
20211017123205 7 46 0.0 0.0 0.00 0.00 0.00 85 1021.3
20211017122703 7 46 0.0 0.0 0.00 0.00 0.00 85 1021.3
20211017122203 7 46 0.0 0.0 0.00 0.00 0.00 85 1021.3
20211017121703 7 46 0.0 0.0 0.00 0.00 0.00 85 1021.3
20211017121203 7 46 0.0 0.0 0.00 0.00 0.00 85 1021.3
20211017120704 7 46 0.0 0.0 0.00 0.00 0.00 85 1021.4
20211017120206 7 46 0.0 1.6 0.00 0.00 0.00 84 1021.3
20211017115702 7 46 0.0 1.6 0.00 0.00 0.00 83 1021.3
20211017115205 7 46 0.0 0.0 0.00 0.00 0.00 83 1021.2
20211017114705 7 46 0.0 1.6 0.00 0.00 0.00 83 1021.1
20211017114205 7 46 0.0 3.2 0.00 0.00 0.00 82 1021.1
20211017113702 7 46 1.6 3.2 0.00 0.00 0.00 82 1021.2
20211017113203 8 46 1.6 4.8 0.00 0.00 0.00 82 1021.3
20211017112701 8 46 1.6 4.8 0.00 0.00 0.00 81 1021.1
20211017112201 8 46 0.0 3.2 0.00 0.00 0.00 81 1021.2
20211017111702 8 46 1.6 3.2 0.00 0.00 0.00 81 1021.1
20211017111204 8 46 1.6 3.2 0.00 0.00 0.00 80 1021.0
20211017110704 7 46 0.0 1.6 0.00 0.00 0.00 79 1021.0
20211017110205 8 46 0.0 1.6 0.00 0.00 0.00 79 1020.9
20211017105707 8 46 0.0 1.6 0.00 0.00 0.00 78 1020.8
20211017105203 8 46 0.0 1.6 0.00 0.00 0.00 77 1020.7
20211017104716 8 46 0.0 1.6 0.00 0.00 0.00 76 1020.7
20211017104205 8 46 0.0 1.6 0.00 0.00 0.00 77 1020.7
20211017103702 8 46 0.0 1.6 0.00 0.00 0.00 76 1020.8
20211017103203 8 46 0.0 1.6 0.00 0.00 0.00 76 1020.7
20211017102701 8 46 0.0 1.6 0.00 0.00 0.00 75 1020.6
20211017102207 8 46 0.0 3.2 0.00 0.00 0.00 76 1020.6
20211017101708 8 46 0.0 3.2 0.00 0.00 0.00 75 1020.6
20211017101203 8 46 1.6 1.6 0.00 0.00 0.00 76 1020.6
20211017100701 8 46 1.6 1.6 0.00 0.00 0.00 75 1020.6
20211017100200 8 46 0.0 1.6 0.00 0.00 0.00 75 1020.6
20211017095702 8 46 0.0 1.6 0.00 0.00 0.00 74 1020.5
20211017095207 9 46 0.0 1.6 0.00 0.00 0.00 74 1020.5
20211017094702 9 46 0.0 1.6 0.00 0.00 0.00 75 1020.6
20211017094205 9 46 0.0 1.6 0.00 0.00 0.00 74 1020.6
20211017093702 9 46 0.0 1.6 0.00 0.00 0.00 73 1020.5
20211017093206 9 46 0.0 1.6 0.00 0.00 0.00 72 1020.5
20211017092701 9 46 0.0 1.6 0.00 0.00 0.00 72 1020.5
20211017092203 9 46 0.0 1.6 0.00 0.00 0.00 73 1020.6
20211017091652 9 46 0.0 1.6 0.00 0.00 0.00 73 1020.6
20211017091147 9 46 0.0 1.6 0.00 0.00 0.00 75 1020.6
20211017090652 9 46 1.6 3.2 0.00 0.00 0.00 75 1020.7
20211017090147 9 46 1.6 3.2 0.00 0.00 0.00 76 1020.7
20211017085646 9 46 0.0 1.6 0.00 0.00 0.00 74 1020.7
20211017085150 10 46 0.0 1.6 0.00 0.00 0.00 73 1020.8
20211017084633 10 46 0.0 0.0 0.00 0.00 0.00 73 1020.8
20211017084128 10 46 0.0 1.6 0.00 0.00 0.00 71 1020.8
20211017083605 10 46 0.0 1.6 0.00 0.00 0.00 72 1021.0
20211017083103 10 46 0.0 1.6 0.00 0.00 0.00 72 1021.0
20211017082605 10 46 0.0 1.6 0.00 0.00 0.00 72 1020.9
20211017082107 10 46 0.0 1.6 0.00 0.00 0.00 72 1021.0
20211017081602 10 46 0.0 0.0 0.00 0.00 0.00 72 1021.2
20211017081102 10 46 0.0 0.0 0.00 0.00 0.00 72 1021.1
20211017080606 10 46 0.0 1.6 0.00 0.00 0.00 71 1021.1
20211017080103 10 46 0.0 1.6 0.00 0.00 0.00 71 1021.0
20211017075606 10 46 0.0 1.6 0.00 0.00 0.00 71 1021.0
20211017075102 10 46 0.0 3.2 0.00 0.00 0.00 71 1021.0
20211017074605 10 46 1.6 3.2 0.00 0.00 0.00 71 1021.1
20211017074102 10 46 1.6 1.6 0.00 0.00 0.00 71 1021.0
20211017073607 11 46 0.0 1.6 0.00 0.00 0.00 69 1021.1
20211017073102 11 46 0.0 1.6 0.00 0.00 0.00 68 1021.2
20211017072604 11 46 0.0 1.6 0.00 0.00 0.00 68 1021.2
20211017072103 11 46 0.0 1.6 0.00 0.00 0.00 67 1021.2
20211017071604 11 46 0.0 1.6 0.00 0.00 0.00 68 1021.4
20211017071102 11 46 0.0 3.2 0.00 0.00 0.00 68 1021.3
20211017070602 11 46 1.6 3.2 0.00 0.00 0.00 63 1021.3
20211017070103 12 46 1.6 6.4 0.00 0.00 0.00 65 1021.2
20211017065606 12 46 3.2 6.4 0.00 0.00 0.00 65 1021.2
20211017065105 11 46 3.2 6.4 0.00 0.00 0.00 65 1021.1
20211017064603 11 46 3.2 6.4 0.00 0.00 0.00 65 1021.1
20211017064107 11 46 1.6 4.8 0.00 0.00 0.00 65 1021.2
20211017063604 12 46 1.6 3.2 0.00 0.00 0.00 64 1021.3
20211017063103 12 46 3.2 4.8 0.00 0.00 0.00 63 1021.4
20211017062603 12 46 3.2 4.8 0.00 0.00 0.00 63 1021.4
20211017062103 12 46 1.6 4.8 0.00 0.00 0.00 63 1021.4
20211017061603 12 46 1.6 4.8 0.00 0.00 0.00 63 1021.5
20211017061100 12 46 1.6 4.8 0.00 0.00 0.00 64 1021.4
20211017060602 12 46 1.6 3.2 0.00 0.00 0.00 62 1021.4
20211017060104 12 46 1.6 3.2 0.00 0.00 0.00 62 1021.4
20211017055603 12 46 0.0 3.2 0.00 0.00 0.00 61 1021.4
20211017055100 12 46 0.0 3.2 0.00 0.00 0.00 62 1021.4
20211017054602 12 46 1.6 3.2 0.00 0.00 0.00 61 1021.4
20211017054101 12 46 1.6 4.8 0.00 0.00 0.00 61 1021.6
20211017053604 12 46 1.6 4.8 0.00 0.00 0.00 60 1021.7
20211017053104 12 46 3.2 6.4 0.00 0.00 0.00 61 1021.8
20211017052603 12 46 3.2 6.4 0.00 0.00 0.00 61 1021.7
20211017052102 12 46 3.2 6.4 0.00 0.00 0.00 61 1021.6
20211017051602 12 46 1.6 6.4 0.00 0.00 0.00 61 1021.6
20211017051102 12 46 1.6 4.8 0.00 0.00 0.00 61 1021.6
20211017050602 12 46 1.6 3.2 0.00 0.00 0.00 61 1021.7
20211017050104 12 46 1.6 4.8 0.00 0.00 0.00 61 1021.6
20211017045603 12 46 1.6 4.8 0.00 0.00 0.00 60 1021.6
20211017045102 12 46 1.6 3.2 0.00 0.00 0.00 60 1021.7
20211017044603 12 46 1.6 4.8 0.00 0.00 0.00 62 1021.7
20211017044102 12 46 3.2 4.8 0.00 0.00 0.00 61 1021.7
20211017043603 12 46 3.2 4.8 0.00 0.00 0.00 61 1021.7
20211017043102 12 46 3.2 4.8 0.00 0.00 0.00 61 1021.6
20211017042603 12 46 1.6 4.8 0.00 0.00 0.00 60 1021.6
20211017042101 12 46 1.6 3.2 0.00 0.00 0.00 61 1021.6
20211017041605 12 46 1.6 3.2 0.00 0.00 0.00 61 1021.7
20211017041105 12 46 1.6 3.2 0.00 0.00 0.00 61 1021.7
20211017040608 12 46 1.6 3.2 0.00 0.00 0.00 61 1021.5
20211017040102 12 46 1.6 3.2 0.00 0.00 0.00 60 1021.6
20211017035605 13 46 1.6 3.2 0.00 0.00 0.00 60 1021.6
20211017035106 13 46 0.0 1.6 0.00 0.00 0.00 59 1021.6
20211017034603 13 46 1.6 3.2 0.00 0.00 0.00 57 1021.6
20211017034103 13 46 1.6 3.2 0.00 0.00 0.00 57 1021.6
20211017033603 13 46 1.6 3.2 0.00 0.00 0.00 57 1021.5
20211017033116 13 46 1.6 3.2 0.00 0.00 0.00 57 1021.4
20211017032605 13 46 1.6 3.2 0.00 0.00 0.00 56 1021.4
20211017032118 13 46 0.0 1.6 0.00 0.00 0.00 55 1021.4
20211017031617 13 46 0.0 1.6 0.00 0.00 0.00 56 1021.5
20211017031116 13 46 0.0 1.6 0.00 0.00 0.00 56 1021.5
20211017030600 13 46 0.0 3.2 0.00 0.00 0.00 55 1021.5
20211017030046 13 46 1.6 3.2 0.00 0.00 0.00 55 1021.5
20211017025549 13 46 1.6 3.2 0.00 0.00 0.00 55 1021.4
20211017025045 13 46 0.0 1.6 0.00 0.00 0.00 56 1021.4
20211017024540 13 46 0.0 1.6 0.00 0.00 0.00 55 1021.3
20211017024049 13 46 0.0 1.6 0.00 0.00 0.00 55 1021.2
20211017023531 13 46 0.0 3.2 0.00 0.00 0.00 55 1021.2
20211017023029 14 46 0.0 3.2 0.00 0.00 0.00 55 1021.2
20211017022529 14 46 0.0 3.2 0.00 0.00 0.00 55 1021.1
20211017022030 14 46 1.6 3.2 0.00 0.00 0.00 54 1021.1
20211017021541 14 46 1.6 3.2 0.00 0.00 0.00 54 1021.1
20211017021029 14 46 1.6 3.2 0.00 0.00 0.00 54 1021.0
20211017020528 14 46 1.6 3.2 0.00 0.00 0.00 54 1021.0
20211017020035 14 46 1.6 3.2 0.00 0.00 0.00 55 1021.0
20211017015532 14 46 1.6 3.2 0.00 0.00 0.00 55 1020.9
20211017015029 14 46 1.6 4.8 0.00 0.00 0.00 55 1020.9
20211017014531 14 46 1.6 4.8 0.00 0.00 0.00 55 1020.9
20211017014031 14 46 0.0 3.2 0.00 0.00 0.00 54 1020.8
20211017013528 14 46 0.0 3.2 0.00 0.00 0.00 54 1020.8
20211017013036 14 46 0.0 3.2 0.00 0.00 0.00 55 1020.9
20211017012530 15 46 0.0 3.2 0.00 0.00 0.00 54 1020.9
20211017012031 15 46 1.6 3.2 0.00 0.00 0.00 53 1020.8
20211017011530 15 46 1.6 3.2 0.00 0.00 0.00 51 1020.9
20211017011032 15 46 1.6 3.2 0.00 0.00 0.00 51 1020.8
20211017010532 15 46 0.0 3.2 0.00 0.00 0.00 52 1020.8
20211017010030 15 46 0.0 3.2 0.00 0.00 0.00 54 1020.8
20211017005530 15 46 0.0 3.2 0.00 0.00 0.00 52 1020.7
20211017005034 16 46 1.6 3.2 0.00 0.00 0.00 47 1020.7
20211017004531 16 46 1.6 3.2 0.00 0.00 0.00 47 1020.6
20211017004030 16 46 1.6 3.2 0.00 0.00 0.00 46 1020.5
20211017003530 16 46 0.0 3.2 0.00 0.00 0.00 45 1020.5
20211017003029 16 46 0.0 3.2 0.00 0.00 0.00 45 1020.5
20211017002532 16 46 1.6 3.2 0.00 0.00 0.00 45 1020.5
20211017002031 16 46 1.6 3.2 0.00 0.00 0.00 44 1020.4
20211017001530 17 46 1.6 3.2 0.00 0.00 0.00 44 1020.4
20211017001034 17 46 1.6 4.8 0.00 0.00 0.00 43 1020.3
20211017000530 17 46 1.6 4.8 0.00 0.00 0.00 43 1020.3
20211017000029 17 46 3.2 6.4 0.00 0.00 0.00 43 1020.3
20211016235529 17 46 3.2 6.4 0.00 0.00 0.00 42 1020.2
20211016235029 18 46 3.2 6.4 0.00 0.00 0.00 41 1020.3
20211016234530 18 46 3.2 6.4 0.00 0.00 0.00 40 1020.4
20211016234032 18 46 4.8 9.7 0.00 0.00 0.00 39 1020.3
20211016233529 18 46 4.8 11.3 0.00 0.00 0.00 37 1020.4
20211016233031 19 46 6.4 16.1 0.00 0.00 0.00 37 1020.4
20211016232531 19 49 6.4 16.1 0.00 0.00 0.00 36 1020.3
20211016232030 20 39 4.8 12.9 0.00 0.00 0.00 36 1020.4
20211016231529 20 32 6.4 12.9 0.00 0.00 0.00 36 1020.4
20211016231031 20 35 6.4 20.9 0.00 0.00 0.00 36 1020.4
20211016230530 20 39 8.0 20.9 0.00 0.00 0.00 35 1020.4
20211016230033 20 31 6.4 16.1 0.00 0.00 0.00 35 1020.4
20211016225530 20 20 4.8 16.1 0.00 0.00 0.00 36 1020.4
20211016225029 20 53 4.8 16.1 0.00 0.00 0.00 35 1020.5
20211016224530 20 57 6.4 16.1 0.00 0.00 0.00 35 1020.5
20211016224029 20 48 8.0 17.7 0.00 0.00 0.00 34 1020.5
20211016223528 21 12 8.0 17.7 0.00 0.00 0.00 32 1020.6
20211016223029 21 39 6.4 16.1 0.00 0.00 0.00 35 1020.7
20211016222529 21 34 9.7 25.7 0.00 0.00 0.00 33 1020.7
20211016222035 21 34 9.7 25.7 0.00 0.00 0.00 34 1020.6
20211016221529 21 63 9.7 20.9 0.00 0.00 0.00 33 1020.7
20211016221030 21 57 8.0 20.9 0.00 0.00 0.00 34 1020.7
20211016220528 21 42 6.4 16.1 0.00 0.00 0.00 37 1020.8
20211016220030 21 51 8.0 19.3 0.00 0.00 0.00 36 1020.8
20211016215525 21 40 9.7 20.9 0.00 0.00 0.00 35 1020.9
20211016215026 21 51 9.7 20.9 0.00 0.00 0.00 35 1020.9
20211016214522 21 56 8.0 19.3 0.00 0.00 0.00 34 1020.9
20211016214021 21 67 6.4 19.3 0.00 0.00 0.00 34 1021.0
20211016213522 21 58 6.4 19.3 0.00 0.00 0.00 35 1021.0
20211016213024 21 42 4.8 17.7 0.00 0.00 0.00 34 1021.0
20211016212521 21 27 6.4 17.7 0.00 0.00 0.00 34 1021.1
20211016212018 21 24 4.8 16.1 0.00 0.00 0.00 35 1021.2
20211016211511 21 37 4.8 16.1 0.00 0.00 0.00 33 1021.2
20211016211007 21 55 4.8 16.1 0.00 0.00 0.00 34 1021.3
20211016210507 21 5 4.8 14.5 0.00 0.00 0.00 35 1021.2
20211016210008 21 15 6.4 16.1 0.00 0.00 0.00 36 1021.3
20211016205509 21 28 6.4 17.7 0.00 0.00 0.00 34 1021.2
20211016205007 21 53 6.4 19.3 0.00 0.00 0.00 34 1021.1
20211016204503 21 16 8.0 19.3 0.00 0.00 0.00 35 1021.1
20211016204002 21 43 8.0 12.9 0.00 0.00 0.00 34 1021.2
20211016203502 21 48 9.7 22.5 0.00 0.00 0.00 34 1021.2
20211016202959 21 46 9.7 22.5 0.00 0.00 0.00 35 1021.2
20211016202450 21 52 8.0 22.5 0.00 0.00 0.00 34 1021.3
20211016201935 21 57 6.4 19.3 0.00 0.00 0.00 35 1021.5
20211016201430 21 41 9.7 22.5 0.00 0.00 0.00 35 1021.5
20211016200930 21 40 11.3 22.5 0.00 0.00 0.00 35 1021.5
20211016200430 21 66 8.0 22.5 0.00 0.00 0.00 35 1021.5
20211016195929 21 24 4.8 16.1 0.00 0.00 0.00 36 1021.5
20211016195429 21 54 8.0 25.7 0.00 0.00 0.00 36 1021.6
20211016194932 21 44 9.7 25.7 0.00 0.00 0.00 36 1021.7
20211016194433 21 62 9.7 20.9 0.00 0.00 0.00 36 1021.7
20211016193932 21 48 8.0 20.9 0.00 0.00 0.00 35 1021.7
20211016193434 21 59 8.0 17.7 0.00 0.00 0.00 37 1021.8
20211016192930 21 20 8.0 19.3 0.00 0.00 0.00 36 1021.9
20211016192428 21 20 8.0 22.5 0.00 0.00 0.00 35 1022.1
20211016191929 21 67 8.0 22.5 0.00 0.00 0.00 34 1022.1
20211016191433 21 53 8.0 19.3 0.00 0.00 0.00 35 1022.2
20211016190937 21 5 8.0 19.3 0.00 0.00 0.00 37 1022.3
20211016190428 21 42 6.4 19.3 0.00 0.00 0.00 38 1022.3
20211016185930 20 41 6.4 19.3 0.00 0.00 0.00 38 1022.5
20211016185431 20 39 8.0 22.5 0.00 0.00 0.00 39 1022.5
20211016184930 20 35 8.0 22.5 0.00 0.00 0.00 37 1022.7
20211016184429 21 51 6.4 22.5 0.00 0.00 0.00 38 1022.8
20211016183931 21 57 4.8 22.5 0.00 0.00 0.00 40 1022.9
20211016183428 21 0 4.8 11.3 0.00 0.00 0.00 39 1022.9
20211016182932 20 10 6.4 16.1 0.00 0.00 0.00 41 1023.0
20211016182428 20 42 8.0 19.3 0.00 0.00 0.00 40 1023.0
20211016181932 20 31 9.7 20.9 0.00 0.00 0.00 40 1023.0
20211016181430 20 44 8.0 20.9 0.00 0.00 0.00 41 1023.0
20211016180938 20 50 6.4 19.3 0.00 0.00 0.00 39 1023.2
20211016180429 20 42 6.4 19.3 0.00 0.00 0.00 42 1023.2
20211016175930 20 42 8.0 17.7 0.00 0.00 0.00 41 1023.2
20211016175430 20 39 8.0 17.7 0.00 0.00 0.00 40 1023.5
20211016174930 20 50 8.0 17.7 0.00 0.00 0.00 42 1023.6
20211016174430 20 41 8.0 19.3 0.00 0.00 0.00 42 1023.7
20211016173930 20 63 6.4 19.3 0.00 0.00 0.00 42 1023.7
20211016173430 20 41 8.0 19.3 0.00 0.00 0.00 42 1023.7
20211016172933 19 32 9.7 20.9 0.00 0.00 0.00 42 1023.8
20211016172428 19 74 8.0 20.9 0.00 0.00 0.00 42 1023.8
20211016171934 19 74 9.7 20.9 0.00 0.00 0.00 41 1023.7
20211016171429 19 28 9.7 20.9 0.00 0.00 0.00 42 1023.8
20211016170929 19 44 8.0 20.9 0.00 0.00 0.00 42 1023.8
20211016170428 19 53 9.7 22.5 0.00 0.00 0.00 43 1023.8
20211016165930 18 35 11.3 22.5 0.00 0.00 0.00 44 1023.7
20211016165428 19 46 11.3 22.5 0.00 0.00 0.00 43 1023.8
20211016164931 19 55 9.7 24.1 0.00 0.00 0.00 41 1023.7
20211016164431 19 40 8.0 24.1 0.00 0.00 0.00 44 1023.8
20211016163930 18 55 9.7 22.5 0.00 0.00 0.00 44 1023.8
20211016163430 18 60 11.3 25.7 0.00 0.00 0.00 44 1023.8
20211016162930 18 28 14.5 30.6 0.00 0.00 0.00 44 1023.8
20211016162429 18 73 16.1 30.6 0.00 0.00 0.00 43 1023.8